Weather Roundup
Issued by NWS Springfield, MO

Home | Current Version | Previous Version | Text Only | Print | Product List | Glossary On
Versions: 1 2 3 4 5 6 7 8 9 10 11 12 13 14 15 16 17 18 19 20 21 22 23 24 25 26 27 28 29 30 31 32 33 34 35 36 37 38 39 40 41 42 43 44 45 46 47 48 49 50
000
NZUS99 KSGF 282059
HRRSGF

HOURLY WEATHER
NATIONAL WEATHER SERVICE SPRINGFIELD MO
400 PM CDT TUE JUL 28 2015

......SGF CWA......

CITY           SKY/WX    TMP DP  RH WIND       PRES   REMARKS
SPRINGFIELD    MOSUNNY   92  74  55 S13       29.97F HX 101
JOPLIN         MOSUNNY   94  73  50 S16       29.95F HX 103
WEST PLAINS    MOSUNNY   92  72  51 SW9       30.01F HX  99
ROLLA          MOSUNNY   90  77  65 S5        29.96S HX 103
OSAGE BEACH    SUNNY     95  73  49 S12       29.95F HX 105
BRANSON        MOSUNNY   91  73  55 SW6       30.01F HX 100

......SURROUNDING SGF CWA......

CITY           SKY/WX    TMP DP  RH WIND       PRES   REMARKS
CHANUTE        SUNNY     95  72  47 S17G26    29.91S HX 103
PARSONS        SUNNY     94  75  54 S12       29.93S HX 105
COFFEYVILLE    SUNNY     95  72  47 S15G23    29.92R HX 103
EMPORIA        SUNNY     99  69  37 S20G28    29.87S HX 105
GROVE OK       SUNNY     97  72  44 S14       29.97S HX 105
SILOAM SPRINGS MOSUNNY   95  72  46 SW12      29.99S HX 103
HARRISON AR    MOSUNNY   91  74  57 S7        30.01F HX 100
NEAR YELLVILLE MOSUNNY   93  73  52 S5        29.96F HX 102

......KANSAS AND MISSOURI......

CITY           SKY/WX    TMP DP  RH WIND       PRES   REMARKS
KANSAS CTY INT MOSUNNY   94  75  54 S14       29.88F HX 105
DOWNTOWN KC    SUNNY     97  73  45 S14       29.86F HX 107
COLUMBIA       SUNNY     92  76  59 SW12      29.93F HX 104
SEDALIA        SUNNY     96  74  48 S15       29.93F HX 107
ST JOSEPH      SUNNY     93  75  55 S16G22    29.85F HX 104
ST LOUIS       MOSUNNY   99  75  46 W6        29.92F HX 112
SPIRIT OF STL  SUNNY     95  78  58 W8        29.90F HX 111
KIRKSVILLE     MOSUNNY   93  74  53 SW10      29.92R HX 103
WICHITA        SUNNY     99  69  37 S23       29.86S HX 105
TOPEKA         SUNNY     96  72  45 S18       29.85F HX 104
OLATHE         SUNNY     93  72  50 S17G23    29.89S HX 101

......TENNESSEE......

CITY           SKY/WX    TMP DP  RH WIND       PRES   REMARKS
MEMPHIS        MOSUNNY   96  74  48 VRB5      29.98S HX 107
NASHVILLE      CLOUDY    88  76  67 E9G23     29.97S HX  99

......ARKANSAS.......

CITY           SKY/WX    TMP DP  RH WIND       PRES   REMARKS
FAYETTEVILLE   MOSUNNY   90  75  61 S8        30.00F HX 100
FT SMITH       SUNNY     97  71  42 E7        29.93F HX 104
LITTLE ROCK    MOSUNNY   98  70  40 SE8       29.96F HX 105

......OKLAHOMA.......

CITY           SKY/WX    TMP DP  RH WIND       PRES   REMARKS
TULSA          MOSUNNY   97  72  44 S20       29.91S HX 105
PONCA CITY     SUNNY     97  73  45 S13G23    29.88S HX 107
MCALESTER      MOSUNNY   95  70  44 VRB7G17   29.96S HX 101
OKLAHOMA CITY  MOSUNNY   94  70  45 S17       29.93S HX 100

......IOWA............

CITY           SKY/WX    TMP DP  RH WIND       PRES   REMARKS
DES MOINES     CLOUDY    88  74  63 N3        29.89R HX  96
QUAD CITIES    CLOUDY    82  75  79 S5        29.88F

......ILLINOIS........

CITY           SKY/WX    TMP DP  RH WIND       PRES   REMARKS
QUINCY         SUNNY     92  78  63 S8        29.91F HX 107
CHICAGO        PTSUNNY   90  68  48 SE7       29.87F HX  94



USA.gov is the U.S. government's official web portal to all federal, state and local government web resources and services.